WJA192 CYWG-KMSP

Flight info

Callsign WJA192
Flight time N/A
Altitude 37000
Route ELETO DCT GROLE DCT KP21E DCT GGULL BAINY3
Aircraft B738/M-SDE2E3FGHIRWXY/LB1

Departure

Time 2026-05-07 00:59
Airport Winnipeg / James Armstrong Richardson International Airport (CYWG)

Arrival

Time N/A
Airport Minneapolis–Saint Paul International Airport / Wold–Chamberlain Field (KMSP)
Time Latitude Longitude Altitude Speed Heading
2026-05-07 00:35 49.90679 -97.22282 785 ft 0 kts 187°
2026-05-07 00:47 49.90685 -97.22281 785 ft 2 kts 187°
2026-05-07 00:47 49.90701 -97.22278 785 ft 2 kts 186°
2026-05-07 00:47 49.90717 -97.22275 785 ft 2 kts 186°
2026-05-07 00:48 49.90733 -97.22273 785 ft 2 kts 187°
2026-05-07 00:48 49.90749 -97.22266 785 ft 2 kts 233°
2026-05-07 00:48 49.90754 -97.22245 785 ft 0 kts 276°
2026-05-07 00:51 49.90756 -97.22268 785 ft 6 kts 277°
2026-05-07 00:51 49.90765 -97.22383 785 ft 15 kts 271°
2026-05-07 00:51 49.90755 -97.22599 785 ft 24 kts 257°
2026-05-07 00:52 49.90721 -97.22849 785 ft 23 kts 258°
2026-05-07 00:52 49.90690 -97.23090 785 ft 22 kts 259°
2026-05-07 00:52 49.90659 -97.23282 785 ft 13 kts 240°
2026-05-07 00:52 49.90578 -97.23343 789 ft 13 kts 199°
2026-05-07 00:53 49.90496 -97.23387 787 ft 13 kts 199°
2026-05-07 00:53 49.90412 -97.23432 785 ft 14 kts 199°
2026-05-07 00:53 49.90318 -97.23459 785 ft 14 kts 159°
2026-05-07 00:53 49.90242 -97.23362 785 ft 15 kts 138°
2026-05-07 00:54 49.90158 -97.23246 785 ft 17 kts 139°
2026-05-07 00:54 49.90058 -97.23110 785 ft 22 kts 138°
2026-05-07 00:54 49.89936 -97.22943 785 ft 23 kts 139°
2026-05-07 00:54 49.89828 -97.22762 785 ft 23 kts 129°
2026-05-07 00:55 49.89731 -97.22580 785 ft 17 kts 129°
2026-05-07 00:55 49.89669 -97.22557 785 ft 9 kts 212°
2026-05-07 00:55 49.89623 -97.22632 785 ft 11 kts 229°
2026-05-07 00:55 49.89555 -97.22752 784 ft 18 kts 229°
2026-05-07 00:56 49.89483 -97.22926 784 ft 20 kts 265°
2026-05-07 00:56 49.89499 -97.23134 785 ft 19 kts 276°
2026-05-07 00:56 49.89513 -97.23335 785 ft 18 kts 276°
2026-05-07 00:56 49.89527 -97.23530 785 ft 18 kts 276°
2026-05-07 00:57 49.89542 -97.23717 785 ft 17 kts 277°
2026-05-07 00:57 49.89556 -97.23898 785 ft 17 kts 277°
2026-05-07 00:57 49.89570 -97.24072 786 ft 16 kts 278°
2026-05-07 00:57 49.89628 -97.24166 787 ft 4 kts 10°
2026-05-07 00:58 49.89629 -97.24166 787 ft 0 kts 10°
2026-05-07 00:59 49.90338 -97.24000 787 ft 115 kts
2026-05-07 00:59 49.91290 -97.23758 942 ft 148 kts 13°
2026-05-07 00:59 49.92302 -97.23484 1514 ft 159 kts
2026-05-07 01:00 49.93464 -97.23225 1919 ft 175 kts
2026-05-07 01:00 49.94698 -97.22948 2592 ft 176 kts
2026-05-07 01:00 49.95918 -97.22666 3163 ft 183 kts
2026-05-07 01:00 49.97110 -97.21896 3545 ft 201 kts 41°
2026-05-07 01:01 49.97714 -97.19846 3723 ft 227 kts 84°
2026-05-07 01:01 49.97386 -97.17347 3979 ft 250 kts 116°
2026-05-07 01:01 49.96185 -97.15261 4218 ft 272 kts 149°
2026-05-07 01:01 49.94443 -97.14037 4946 ft 277 kts 160°
2026-05-07 01:02 49.92636 -97.12952 5724 ft 281 kts 161°
2026-05-07 01:02 49.90801 -97.11843 6537 ft 284 kts 161°
2026-05-07 01:02 49.88950 -97.10699 7273 ft 289 kts 160°
2026-05-07 01:02 49.87074 -97.09513 8025 ft 293 kts 160°
2026-05-07 01:03 49.85176 -97.08293 8782 ft 298 kts 159°
2026-05-07 01:03 49.83250 -97.07043 9541 ft 302 kts 158°
2026-05-07 01:03 49.81296 -97.05767 10249 ft 307 kts 158°
2026-05-07 01:03 49.79266 -97.04438 10505 ft 329 kts 158°
2026-05-07 01:04 49.77091 -97.03011 10783 ft 347 kts 158°
2026-05-07 01:04 49.74841 -97.01534 11366 ft 355 kts 158°
2026-05-07 01:04 49.72562 -97.00036 12107 ft 357 kts 158°
2026-05-07 01:04 49.70261 -96.98526 12871 ft 361 kts 158°
2026-05-07 01:05 49.67941 -96.97006 13637 ft 365 kts 158°
2026-05-07 01:05 49.65589 -96.95467 14339 ft 369 kts 157°
2026-05-07 01:05 49.63227 -96.93884 15055 ft 372 kts 154°
2026-05-07 01:05 49.60953 -96.91944 15783 ft 375 kts 149°
2026-05-07 01:06 49.58718 -96.89850 16502 ft 378 kts 148°
2026-05-07 01:06 49.56467 -96.87699 17223 ft 382 kts 148°
2026-05-07 01:06 49.54196 -96.85533 17920 ft 386 kts 148°
2026-05-07 01:06 49.51900 -96.83362 18595 ft 389 kts 148°
2026-05-07 01:07 49.49586 -96.81192 19252 ft 391 kts 148°
2026-05-07 01:07 49.47256 -96.79021 19904 ft 392 kts 149°
2026-05-07 01:07 49.44912 -96.76846 20549 ft 395 kts 149°
2026-05-07 01:07 49.42555 -96.74666 21174 ft 397 kts 149°
2026-05-07 01:08 49.40178 -96.72472 21787 ft 400 kts 149°
2026-05-07 01:08 49.37787 -96.70268 22383 ft 402 kts 149°
2026-05-07 01:08 49.35381 -96.68054 22921 ft 407 kts 149°
2026-05-07 01:08 49.32941 -96.65810 23446 ft 410 kts 150°
2026-05-07 01:09 49.30492 -96.63559 23985 ft 411 kts 150°
2026-05-07 01:09 49.28026 -96.61296 24466 ft 414 kts 150°
2026-05-07 01:09 49.25581 -96.59054 24912 ft 416 kts 150°
2026-05-07 01:09 49.23053 -96.56740 25361 ft 419 kts 150°
2026-05-07 01:10 49.20576 -96.54474 25782 ft 422 kts 150°
2026-05-07 01:10 49.18046 -96.52163 26225 ft 424 kts 150°